Weather History for Whiting Fld NAS, FL

Change the Weather History Date:

Saturday, December 22, 2012

  Actual Average Record
Temperature  
Mean Temperature 46 °F -  
Max Temperature 62 °F 58 °F 80 °F (2010)
Min Temperature 30 °F 40 °F 26 °F (2000)
Degree Days  
Heating Degree Days 19    
Moisture  
Dew Point 24 °F    
Average Humidity 51    
Maximum Humidity 79    
Minimum Humidity 21    
Precipitation  
Precipitation 0.00 in - - ()
Sea Level Pressure  
Sea Level Pressure 30.29 in    
Wind  
Wind Speed 5 mph (NW)    
Max Wind Speed 9 mph    
Max Gust Speed -    
Visibility 10 miles    
Events Rain    
Averages and records for this station are not official NWS values.
T = Trace of Precipitation, MM = Missing Value Source: NWS Daily Summary

Daily Weather History Graph

Daily Weather History Graph

Search for Another Location

Airport:

Trip Planner

Search our weather history database for the weather conditions in past years. The results will help you decide how hot, cold, wet, or windy it might be!

Date:

Astronomy

Dec. 22, 2012 Rise Set
Actual Time 6:42 AM CST 4:51 PM CST
Civil Twilight 6:15 AM CST 5:18 PM CST
Nautical Twilight 5:45 AM CST 5:48 PM CST
Astronomical Twilight 5:16 AM CST 6:17 PM CST
Moon 12:58 PM CST (12/22) 1:39 AM CST (12/22)
Length of Visible Light 11h 02m
Length of Day
10h 09m
Waxing Gibbous, 74% of the Moon is Illuminated
Dec 22
Waxing Gibbous
Dec 28
Full
Jan 4
Last Quarter
Jan 11
New
Jan 18
First Quarter

Hourly Weather History & Observations

Time (CST) Temp. Windchill Dew Point Humidity Pressure Visibility Wind Dir Wind Speed Gust Speed Precip Events Conditions
12:56 AM 34.0 °F 29.8 °F 21.0 °F 59% 30.30 in 10.0 mi WNW 4.6 mph - N/A   Clear
1:56 AM 33.1 °F 27.7 °F 21.0 °F 61% 30.29 in 10.0 mi NW 5.8 mph - N/A   Clear
2:56 AM 36.0 °F 32.1 °F 21.0 °F 55% 30.29 in 10.0 mi NNW 4.6 mph - N/A   Clear
3:56 AM 32.0 °F 25.6 °F 19.9 °F 61% 30.30 in 10.0 mi WNW 6.9 mph - N/A   Clear
4:56 AM 30.9 °F 25.2 °F 21.0 °F 67% 30.31 in 10.0 mi NW 5.8 mph - N/A   Clear
5:56 AM 34.0 °F 28.8 °F 21.0 °F 59% 30.32 in 10.0 mi NW 5.8 mph - N/A   Clear
6:56 AM 33.1 °F 28.7 °F 21.0 °F 61% 30.34 in 10.0 mi NW 4.6 mph - N/A   Clear
7:56 AM 39.0 °F 35.7 °F 23.0 °F 53% 30.36 in 10.0 mi North 4.6 mph - 0.00 in   Clear
8:56 AM 44.1 °F 41.5 °F 23.0 °F 43% 30.38 in 10.0 mi NNW 4.6 mph - N/A   Clear
9:56 AM 50.0 °F - 23.0 °F 35% 30.38 in 10.0 mi North 8.1 mph - N/A   Clear
10:56 AM 55.0 °F - 19.9 °F 25% 30.35 in 10.0 mi NNW 9.2 mph - N/A   Clear
11:56 AM 57.0 °F - 19.9 °F 24% 30.31 in 10.0 mi North 5.8 mph - N/A   Clear
12:56 PM 59.0 °F - 21.0 °F 23% 30.29 in 10.0 mi North 6.9 mph - N/A   Clear
1:56 PM 62.1 °F - 21.9 °F 21% 30.26 in 10.0 mi NNW 6.9 mph - N/A   Clear
2:56 PM 62.1 °F - 21.0 °F 21% 30.25 in 10.0 mi NW 4.6 mph - N/A   Clear
3:56 PM 62.1 °F - 21.9 °F 21% 30.25 in 10.0 mi NNW 3.5 mph - N/A   Clear
4:56 PM 52.0 °F - 27.0 °F 38% 30.25 in 10.0 mi Calm Calm - N/A   Clear
5:56 PM 42.1 °F - 30.0 °F 62% 30.26 in 10.0 mi Calm Calm - N/A   Clear
6:56 PM 42.1 °F - 32.0 °F 67% 30.25 in 10.0 mi Calm Calm - 0.00 in Rain Light Rain
7:56 PM 39.9 °F - 28.0 °F 63% 30.25 in 10.0 mi Calm Calm - 0.00 in   Clear
8:56 PM 37.0 °F - 28.9 °F 73% 30.26 in 10.0 mi Calm Calm - N/A   Clear
9:56 PM 37.0 °F - 30.9 °F 79% 30.25 in 10.0 mi Calm Calm - 0.00 in   Clear
10:56 PM 37.0 °F - 30.0 °F 76% 30.24 in 10.0 mi Calm Calm - 0.00 in   Clear
11:56 PM 35.1 °F 32.2 °F 28.0 °F 76% 30.23 in 10.0 mi West 3.5 mph - 0.00 in   Clear